Regional Weather Roundup
Issued by NWS

Home | Current Version | Previous Version | Text Only | Print | Product List | Glossary Off
Versions: 1 2 3 4 5 6 7 8 9 10 11 12 13 14 15 16 17 18 19 20 21 22 23 24 25 26 27 28 29 30 31 32 33 34 35 36 37 38 39 40 41 42 43 44 45 46 47 48 49 50

000
ASUS43 KLSX 290959
RWRMO

WEATHER SUMMARY FOR MISSOURI
NATIONAL WEATHER SERVICE SPRINGFIELD MO
500 AM CDT FRI AUG 29 2014

NOTE: "FAIR" INDICATES FEW OR NO CLOUDS BELOW 12,000 FEET WITH NO
       SIGNIFICANT WEATHER AND/OR OBSTRUCTIONS TO VISIBILITY.
       CURRENT SKY AND/OR WEATHER CONDITIONS ARE NOT AVAILABLE FOR
       CHILLICOTHE AND FARMINGTON.

MOZ001>031-035>038-043-044-053-054-291100-
...NORTHERN AND WESTERN MISSOURI...

CITY           SKY/WX    TMP DP  RH WIND       PRES   REMARKS
KANSAS CTY INT PTCLDY    69  64  84 S9        29.85S
KANSAS C DTWN  CLEAR     76  63  64 SW8       29.84S
LEE`S SUMMIT   CLEAR     73  63  70 S7        29.86F
ST JOSEPH      MOCLDY    71  65  81 S5        29.83S
KIRKSVILLE     CLEAR     70  68  93 S6        29.90S FOG

$$
MOZ066>068-077>081-088>096-101>105-291100-
...SOUTHWEST MISSOURI...

CITY           SKY/WX    TMP DP  RH WIND       PRES   REMARKS
SPRINGFIELD    CLEAR     71  62  73 SE10      29.92F
JOPLIN         PTCLDY    74  64  71 SW7       29.90R

$$
MOZ032>034-039>042-045>050-055>058-069>072-291100-
...CENTRAL MISSOURI...

CITY           SKY/WX    TMP DP  RH WIND       PRES   REMARKS
COLUMBIA         N/A     71  65  81 SE9       29.92S
JEFFERSON CITY CLEAR     72  65  78 E6        29.91S
ROLLA          CLEAR     70  64  81 S7        29.95R
SEDALIA        CLEAR     71  62  73 S8        29.90S
OSAGE BEACH    CLEAR     70  63  78 SE3       29.92F

$$
MOZ051-052-059>065-291100-
...EAST CENTRAL MISSOURI...

CITY           SKY/WX    TMP DP  RH WIND       PRES   REMARKS
ST LOUIS INTL  PTCLDY    76  70  82 CALM      29.96R
SPIRIT OF STL  PTCLDY    70  69  97 CALM      29.94S FOG
ST CHARLES     CLEAR     72  71  97 E6        29.94S FOG

$$
MOZ072>076-082>087-097>100-106>115-291100-
...SOUTH CENTRAL AND SOUTHEAST MISSOURI...

CITY           SKY/WX    TMP DP  RH WIND       PRES   REMARKS
CAPE GIRARDEAU CLEAR     69  68  96 NE3       29.95S FOG
FARMINGTON     CLEAR     68  66  94 CALM      29.99S
POPLAR BLUFF   MOCLDY    72  68  87 CALM      29.94R FOG
WEST PLAINS    CLEAR     66  61  84 CALM      29.98S

$$



USA.gov is the U.S. government's official web portal to all federal, state and local government web resources and services.